Terug naar catalogus

YUNYAO-1 44

ActiefWetenschapSSO
NORAD 63345·PAYLOAD·🇨🇳 China

Gelanceerd Mar 21, 2025 vanaf Jiuquan Satellite Launch Center

Loading…

Volgende Passages (komende 24 uur)

TLE

VersSource: Space-Track

Epoch: Sep 14, 2026, 22:07 UTC

1 63345U 25059B   26257.92162257  .00003338  00000-0  20057-3 0  9992
2 63345  97.6130  78.8127 0015984 205.4222 154.6223 15.11487589 81850

Volg YUNYAO-1 44 in realtime met AllMySat

Download on the App Store